Dewpoint
56 53 47 35 25 32 30 32 37 31 31 42 45 45 46 51 44 40 61 64 65 66 68 69 70 70 69 69 69 69 69 68 67 68 68 68 68 68 68 68 69 68 66 66 65 64 63 63 62
55 48 38 30 22 19 15 26 27 31 38 42 46 48 51 50 56 61 61 65 65 66 68 68 69 70 70 70 70 69 68 67 66 67 68 67 68 68 68 68 68 68 66 66 64 64 63 62 61
43 45 32 27 21 17 16 21 28 30 30 42 46 53 53 54 59 60 63 64 65 66 68 68 69 70 70 70 70 69 68 68 66 66 66 67 67 68 68 68 68 68 66 65 64 64 63 62 61
40 33 28 25 23 25 26 31 30 26 29 46 45 51 55 59 60 61 64 64 65 65 68 68 69 70 70 69 70 69 69 67 66 66 66 65 67 68 69 69 68 68 67 64 64 63 62 61 61
38 29 23 20 18 28 32 33 31 32 42 48 49 51 53 59 54 55 62 65 65 66 67 68 69 69 69 69 69 68 68 67 66 65 65 65 67 68 69 68 68 68 66 64 63 63 62 61 61
34 26 19 18 30 33 33 32 33 38 44 48 49 50 55 55 52 54 59 63 66 66 67 68 66 67 68 68 68 68 67 67 66 66 65 64 67 68 69 68 68 67 67 64 62 62 61 61 61
32 25 22 25 28 31 31 32 33 36 44 47 49 48 50 50 51 55 62 63 66 67 66 66 67 66 65 66 67 67 67 66 66 66 66 66 67 68 68 67 68 68 66 64 63 64 62 60 62
34 28 28 29 30 30 31 31 32 41 43 48 48 45 47 48 51 56 60 59 60 65 65 66 65 66 65 65 64 64 65 66 66 66 65 65 65 66 66 65 66 67 66 64 64 64 63 60 61
33 32 30 30 30 30 30 29 30 42 42 45 44 44 45 47 50 53 54 57 57 58 58 64 63 64 64 64 63 62 63 64 63 63 62 62 63 64 64 63 64 66 65 65 63 63 63 61 60
33 29 29 26 30 29 30 35 36 37 40 41 43 42 44 46 48 50 51 52 53 55 56 56 61 63 62 61 61 63 63 63 62 62 63 63 63 63 64 62 62 64 64 64 64 63 60 57 55
23 23 23 25 27 26 30 32 40 36 37 40 39 39 42 44 46 48 50 51 52 54 55 55 56 62 61 60 61 62 62 62 62 62 63 62 62 61 62 63 63 63 61 62 61 59 55 54 53
23 25 25 28 28 30 30 35 38 39 37 40 40 41 41 42 44 46 48 49 50 52 54 55 56 60 60 60 61 61 61 61 61 62 62 62 60 60 60 62 62 62 63 62 59 57 55 53 53
25 25 26 28 29 30 31 33 35 37 38 40 41 39 39 40 41 44 46 47 47 49 51 54 55 55 60 60 61 61 61 61 61 62 62 62 61 60 60 61 62 61 62 61 59 58 56 54 54
26 28 27 27 28 30 29 28 28 31 37 35 36 36 36 38 39 41 44 44 45 46 49 52 53 54 56 59 60 60 60 61 61 61 62 62 61 60 60 59 62 61 61 60 59 57 56 56 57
26 24 26 26 27 27 30 27 27 29 32 32 32 33 35 36 38 39 43 43 44 45 46 49 51 53 54 58 58 59 60 61 61 60 61 61 61 59 59 60 60 61 61 59 59 58 57 57 58
26 25 23 26 27 27 26 24 27 29 28 28 29 30 32 33 34 37 41 42 41 42 43 45 47 49 52 55 58 58 58 61 61 59 60 61 60 59 59 59 59 59 60 60 59 57 56 56 56
26 22 24 24 27 27 27 26 27 28 28 28 29 29 30 31 32 33 35 39 38 39 41 43 44 45 49 52 55 59 58 59 62 61 59 60 60 59 59 58 58 58 58 58 58 56 56 55 54
24 23 24 23 26 27 25 25 27 28 28 27 28 29 30 30 31 33 33 35 35 37 38 39 41 42 44 49 54 56 58 58 60 62 60 59 59 59 58 57 57 57 57 56 56 55 55 54 54
26 25 23 25 27 28 26 25 26 27 28 27 28 29 29 30 31 32 33 34 34 34 35 36 38 40 41 45 47 50 53 54 57 58 61 59 59 58 58 57 57 56 56 55 55 55 53 52 53
27 26 24 26 28 28 26 25 26 27 27 28 28 28 29 29 30 31 32 33 33 34 34 35 36 37 39 40 44 47 48 51 53 56 60 61 60 59 58 57 56 56 55 55 54 53 52 52 52
28 26 26 26 28 27 25 20 25 26 27 28 28 29 28 28 29 30 32 32 33 33 33 34 35 36 37 38 41 43 49 52 53 52 53 53 55 60 58 57 57 56 56 55 54 53 52 51 50
26 29 29 28 24 21 24 16 20 26 26 27 28 28 27 27 28 29 31 32 32 33 33 34 35 36 35 37 38 39 42 44 46 48 50 51 54 58 60 58 57 56 57 56 55 55 53 52 51
25 30 29 27 24 23 22 16 18 26 25 26 27 27 27 28 28 28 30 32 32 33 33 33 34 35 35 36 37 38 39 41 43 45 47 50 51 54 59 59 59 58 57 56 56 55 54 53 52
31 29 22 25 23 11 22 17 16 22 25 26 26 26 25 26 27 28 28 32 32 32 32 32 33 33 34 35 36 37 38 39 41 43 45 48 50 52 54 59 60 59 58 58 57 57 55 55 54
28 19 5 3 5 8 19 17 17 20 27 27 26 27 25 26 26 27 27 29 31 31 32 32 33 33 34 34 35 36 37 39 40 41 43 44 46 49 51 53 57 59 59 59 59 58 58 56 56
28 21 9 -12 5 9 19 18 18 27 28 28 28 28 24 25 26 26 27 28 30 31 31 31 32 32 33 34 35 36 37 38 39 41 42 43 44 47 49 51 52 55 59 59 59 58 58 58 57
23 18 25 13 11 14 16 19 21 28 27 28 28 28 24 25 26 26 27 27 29 30 31 31 31 32 33 34 35 36 37 38 38 40 42 43 45 48 50 51 51 53 57 59 59 58 58 58 57
27 28 12 12 -6 -7 9 12 17 23 25 26 26 27 24 25 26 26 26 27 28 30 30 31 31 32 33 34 35 35 36 37 38 40 41 43 45 46 48 52 52 52 57 58 58 57 57 57 55
25 21 24 21 18 3 2 3 19 23 25 25 25 27 25 25 27 27 27 28 27 29 30 30 30 32 33 34 34 35 35 36 37 38 40 41 43 44 46 48 50 52 52 53 53 52 52 50 48
25 24 24 7 -3 13 13 10 21 26 25 27 27 28 29 27 28 28 27 27 26 27 28 29 29 31 33 34 34 34 35 35 36 37 38 39 41 42 43 45 46 47 47 47 48 46 46 46 45
Lifted_Index
10 10 9 8 7 6 5 5 5 4 3 2 1 1 0 0 -0 -1 -1 -2 -2 -3 -3 -3 -3 -4 -3 -3 -3 -2 -2 -1 -1 -1 -1 -1 -1 -1 -1 -1 -1 0 1 2 3 3 4 4 5
10 9 9 8 6 5 5 6 5 3 3 2 1 0 0 -0 -1 -1 -2 -2 -2 -3 -3 -3 -3 -3 -4 -3 -3 -3 -2 -1 -1 -1 -1 -1 -1 -1 -1 -1 -1 0 1 2 3 3 4 4 5
9 9 9 8 6 5 6 7 6 4 3 2 1 0 -0 -1 -2 -2 -3 -3 -2 -3 -4 -4 -4 -4 -4 -4 -3 -3 -2 -1 -1 -1 -1 -1 -1 -1 -1 -1 -1 -0 1 2 3 3 4 4 5
9 9 8 7 6 6 7 7 6 4 3 2 1 0 -1 -2 -2 -3 -3 -3 -3 -3 -4 -4 -4 -4 -4 -4 -4 -3 -3 -2 -1 -0 -0 -0 -1 -2 -2 -1 -1 -0 1 2 3 3 4 4 4
9 9 7 6 6 7 7 7 7 5 4 3 2 1 -0 -1 -2 -3 -3 -3 -3 -3 -4 -4 -4 -4 -4 -3 -3 -3 -3 -2 -1 -0 -0 -0 -1 -2 -2 -2 -1 -0 1 2 3 4 4 4 4
9 8 6 5 6 7 7 7 7 6 5 4 2 1 0 -1 -2 -3 -3 -4 -4 -4 -4 -4 -4 -4 -3 -3 -3 -3 -2 -2 -1 -1 -0 -0 -1 -2 -2 -1 -1 -0 1 3 4 4 4 4 4
9 8 6 5 6 7 7 7 7 6 5 4 3 2 1 0 -1 -2 -3 -3 -3 -4 -4 -4 -4 -3 -3 -3 -2 -2 -2 -2 -1 -1 -0 -1 -1 -1 -1 -1 -1 -0 1 3 4 4 4 5 5
9 8 6 6 7 7 7 7 7 6 6 4 3 3 2 1 1 -1 -2 -2 -1 -2 -3 -3 -3 -3 -3 -2 -2 -1 -1 -1 -1 -1 -1 -0 -0 -0 -0 -0 -0 0 1 2 3 4 4 5 5
8 7 6 7 8 8 7 7 7 6 5 4 4 3 2 2 2 1 -1 0 2 1 -0 -1 -2 -3 -3 -2 -1 -1 -0 -0 -0 -0 -0 0 0 0 0 0 1 1 1 2 3 4 5 5 5
8 7 7 8 9 9 8 8 7 6 5 4 3 3 2 2 2 1 0 1 2 2 2 2 -0 -2 -2 -1 -1 -0 0 1 1 0 0 0 1 0 0 0 1 1 2 2 3 4 5 6 6
8 8 9 10 11 10 9 7 6 5 4 4 4 3 2 1 1 1 1 0 1 2 3 4 2 -0 -1 -1 -0 0 0 1 1 1 0 0 0 0 0 0 1 1 2 3 4 5 6 6 6
9 10 11 11 11 11 9 7 5 4 4 4 5 4 3 1 1 1 1 1 1 2 4 5 4 1 -0 -0 0 1 1 1 1 1 0 0 0 0 0 0 1 2 2 3 4 4 5 5 5
10 11 11 11 11 10 9 7 5 4 4 5 5 5 4 2 1 1 0 0 1 2 4 5 4 2 1 0 0 1 1 1 1 1 1 0 1 1 1 0 1 2 2 3 3 4 4 4 4
10 11 11 11 10 9 8 7 6 5 5 6 6 6 5 3 1 1 0 0 1 2 3 4 4 4 2 1 1 1 1 1 1 1 1 1 1 1 1 1 1 1 2 3 3 4 4 4 4
11 11 10 10 10 8 7 6 6 6 6 6 6 6 5 4 2 1 1 1 1 2 2 3 4 4 4 2 2 1 1 0 1 1 1 0 0 1 1 1 1 1 1 2 3 3 4 3 3
10 9 9 9 9 8 7 6 6 7 7 6 5 5 5 5 4 3 3 2 2 2 2 3 4 4 4 4 3 2 1 0 0 0 0 0 0 1 1 1 1 1 1 2 2 3 3 3 2
7 7 7 8 9 8 7 6 7 7 7 6 5 5 6 6 6 5 5 4 3 3 3 3 4 4 4 4 4 3 2 1 0 0 0 0 0 0 1 1 1 1 1 1 2 2 2 2 2
5 6 7 8 8 8 6 6 6 6 6 6 5 6 6 6 7 7 7 6 6 5 4 3 3 4 4 4 4 4 3 2 1 0 0 0 0 0 0 0 1 1 1 1 1 1 1 1 2
7 7 7 8 9 7 6 6 6 6 6 6 6 6 6 6 7 7 8 8 8 7 6 5 4 4 4 3 4 4 4 3 2 1 1 1 1 1 0 0 0 1 1 1 1 1 1 1 1
8 7 7 8 9 8 6 6 6 6 6 6 6 6 6 6 7 8 8 9 9 9 8 7 6 6 5 4 3 4 4 4 3 2 1 1 1 1 1 0 0 0 1 1 1 1 1 1 1
7 7 8 8 8 7 6 5 5 5 5 5 6 6 6 6 7 8 9 10 10 10 9 9 9 9 8 6 4 4 4 4 4 3 3 2 2 2 1 1 1 1 1 1 1 2 2 2 2
7 8 8 8 7 7 6 5 4 5 5 5 6 6 6 7 8 9 10 11 11 11 11 10 11 11 11 9 7 5 4 4 4 4 3 3 2 2 2 2 2 2 1 2 2 2 2 2 2
8 9 9 8 7 6 6 5 4 5 5 5 6 6 7 7 9 10 11 12 12 12 12 11 11 12 12 12 10 8 5 5 4 4 4 4 3 3 2 2 1 1 1 1 2 2 2 2 2
8 8 7 6 5 5 5 6 5 5 5 6 6 7 7 8 10 11 12 12 13 13 12 12 12 12 13 13 12 11 9 6 5 4 4 4 3 3 2 2 1 1 1 1 1 1 1 2 2
8 6 4 3 2 3 5 6 5 6 6 6 7 7 7 8 10 12 13 13 14 14 13 12 13 13 13 13 13 12 11 10 7 5 4 4 3 3 3 2 2 2 1 1 1 1 1 2 2
6 5 3 2 1 3 4 5 6 6 6 6 7 7 8 9 10 12 13 14 14 14 13 12 13 13 14 14 14 13 13 12 10 8 6 5 4 3 3 3 2 2 2 1 1 1 1 2 2
6 6 5 3 2 2 3 5 6 6 6 6 7 7 8 9 10 12 13 14 15 14 13 12 12 13 13 14 14 14 14 13 13 11 9 7 5 4 3 3 3 3 2 2 1 1 1 1 1
6 6 5 4 2 1 2 4 6 7 6 6 6 7 8 8 9 11 13 14 14 14 13 12 12 12 12 13 13 13 14 14 13 13 12 10 7 5 4 3 3 2 2 1 1 1 1 1 1
6 6 5 4 2 1 1 3 6 8 7 6 6 7 8 8 9 10 12 14 14 13 12 12 12 12 12 12 12 12 12 13 13 13 12 11 9 7 4 3 2 2 1 1 1 1 1 1 1
6 6 5 4 3 2 2 4 7 9 8 7 6 7 8 8 9 10 12 14 14 13 13 13 12 12 11 11 11 11 12 12 12 12 12 12 10 8 5 3 2 2 1 1 1 1 1 1 1